DLH494 EDDM-CYYZ

Flight info

Callsign DLH494
Flight time N/A
Altitude 38000
Route GIVMI6Q/08L GIVMI Y101 INBED DCT REKDI DCT LOHRE DCT ADKUV DCT LENDO DCT SOGRI DCT DENUT L610 KOPUL DCT SABER DCT SIVDA DCT RODOL UL28 MCT/N0484F400 UL28 PENIL DCT DEJEM DCT OZRAT DCT WETFI DCT ASKUP DCT TUGSI DCT REVNU DCT RESNO/M084F390 NATB LOMSI/N0493F400 N672A ANATI Q812 MAIRE DCT OBTAX Q824 LETAK IMEBA9
Aircraft A359/H-SADE2E3GHIJ1J2J3J4J5M1P2RWXYZ/LB1D1

Departure

Time 2026-05-04 12:07
Airport Munich Airport (EDDM)

Arrival

Time N/A
Airport Toronto Pearson International Airport (CYYZ)
Time Latitude Longitude Altitude Speed Heading
2026-05-04 11:13 48.35788 11.79248 1491 ft 0 kts 263°
2026-05-04 11:49 48.35790 11.79278 1476 ft 4 kts 263°
2026-05-04 11:50 48.35793 11.79319 1476 ft 4 kts 263°
2026-05-04 11:50 48.35795 11.79350 1476 ft 4 kts 272°
2026-05-04 11:50 48.35789 11.79386 1476 ft 4 kts 315°
2026-05-04 11:50 48.35769 11.79399 1476 ft 4 kts 353°
2026-05-04 11:51 48.35744 11.79404 1476 ft 2 kts 353°
2026-05-04 11:51 48.35743 11.79404 1476 ft 0 kts 353°
2026-05-04 11:56 48.35752 11.79402 1483 ft 4 kts 353°
2026-05-04 11:57 48.35803 11.79393 1482 ft 9 kts 353°
2026-05-04 11:57 48.35867 11.79382 1481 ft 10 kts 351°
2026-05-04 11:57 48.35938 11.79345 1482 ft 11 kts 345°
2026-05-04 11:57 48.36017 11.79329 1483 ft 12 kts 353°
2026-05-04 11:58 48.36082 11.79286 1480 ft 9 kts 296°
2026-05-04 11:58 48.36083 11.79184 1485 ft 10 kts 264°
2026-05-04 11:58 48.36072 11.79042 1484 ft 16 kts 263°
2026-05-04 11:58 48.36059 11.78874 1482 ft 17 kts 263°
2026-05-04 11:59 48.36046 11.78696 1481 ft 18 kts 263°
2026-05-04 11:59 48.36031 11.78509 1486 ft 18 kts 263°
2026-05-04 11:59 48.36015 11.78313 1488 ft 19 kts 263°
2026-05-04 11:59 48.35999 11.78109 1489 ft 20 kts 263°
2026-05-04 12:00 48.35985 11.77898 1483 ft 21 kts 264°
2026-05-04 12:00 48.35971 11.77683 1491 ft 21 kts 262°
2026-05-04 12:00 48.35950 11.77461 1481 ft 22 kts 264°
2026-05-04 12:00 48.35934 11.77234 1476 ft 22 kts 263°
2026-05-04 12:01 48.35919 11.77046 1477 ft 0 kts 263°
2026-05-04 12:01 48.35919 11.77043 1478 ft 3 kts 263°
2026-05-04 12:02 48.36124 11.76803 1484 ft 10 kts 354°
2026-05-04 12:03 48.36134 11.76801 1482 ft 0 kts 354°
2026-05-04 12:04 48.36174 11.76797 1488 ft 11 kts 356°
2026-05-04 12:04 48.36250 11.76791 1484 ft 10 kts
2026-05-04 12:05 48.36281 11.76847 1480 ft 7 kts 72°
2026-05-04 12:05 48.36284 11.76872 1482 ft 0 kts 83°
2026-05-04 12:06 48.36285 11.76896 1476 ft 18 kts 83°
2026-05-04 12:06 48.36325 11.77411 1485 ft 80 kts 83°
2026-05-04 12:06 48.36410 11.78512 1477 ft 131 kts 83°
2026-05-04 12:07 48.36544 11.80098 1548 ft 170 kts 81°
2026-05-04 12:07 48.36693 11.81794 2250 ft 159 kts 83°
2026-05-04 12:07 48.36799 11.83488 2754 ft 168 kts 85°
2026-05-04 12:07 48.36989 11.85278 3101 ft 180 kts 69°
2026-05-04 12:08 48.37898 11.86554 3363 ft 194 kts 18°
2026-05-04 12:08 48.39316 11.86587 3564 ft 214 kts 356°
2026-05-04 12:08 48.40874 11.86360 3777 ft 236 kts 357°
2026-05-04 12:08 48.42467 11.85585 4104 ft 252 kts 326°
2026-05-04 12:09 48.43649 11.83537 4513 ft 269 kts 306°
2026-05-04 12:09 48.44811 11.81297 5034 ft 273 kts 312°
2026-05-04 12:09 48.46080 11.79187 5700 ft 271 kts 311°
2026-05-04 12:09 48.47300 11.77020 6313 ft 272 kts 308°
2026-05-04 12:10 48.48505 11.74787 6842 ft 277 kts 307°
2026-05-04 12:10 48.49742 11.72529 7345 ft 281 kts 309°
2026-05-04 12:10 48.51040 11.70299 7931 ft 283 kts 309°
2026-05-04 12:10 48.52326 11.68051 8529 ft 284 kts 308°
2026-05-04 12:11 48.53617 11.65781 9134 ft 286 kts 308°
2026-05-04 12:11 48.54915 11.63496 9754 ft 287 kts 307°
2026-05-04 12:11 48.56215 11.61198 10326 ft 289 kts 307°
2026-05-04 12:11 48.57529 11.58873 10813 ft 295 kts 307°
2026-05-04 12:12 48.58890 11.56461 11076 ft 308 kts 307°
2026-05-04 12:12 48.60309 11.53936 11292 ft 322 kts 307°
2026-05-04 12:12 48.61786 11.51305 11545 ft 335 kts 307°
2026-05-04 12:12 48.63319 11.48576 11787 ft 347 kts 307°
2026-05-04 12:13 48.64911 11.45747 12056 ft 357 kts 307°
2026-05-04 12:14 48.78470 11.27806 15132 ft 383 kts 325°
2026-05-04 12:15 48.80731 11.25650 15563 ft 386 kts 325°
2026-05-04 12:15 48.83011 11.23481 16006 ft 388 kts 325°
2026-05-04 12:15 48.85303 11.21300 16446 ft 390 kts 325°
2026-05-04 12:15 48.86825 11.19848 16732 ft 391 kts 325°
2026-05-04 12:16 48.89127 11.17652 17161 ft 393 kts 325°
2026-05-04 12:16 48.91452 11.15433 17577 ft 395 kts 325°
2026-05-04 12:16 48.93781 11.13204 17988 ft 397 kts 325°
2026-05-04 12:16 48.96131 11.10949 18391 ft 399 kts 325°
2026-05-04 12:17 48.98484 11.08690 18762 ft 401 kts 325°
2026-05-04 12:17 49.00849 11.06417 19156 ft 402 kts 324°
2026-05-04 12:17 49.03222 11.04133 19519 ft 405 kts 324°
2026-05-04 12:17 49.05613 11.01827 19849 ft 408 kts 324°
2026-05-04 12:18 49.08019 10.99506 20272 ft 410 kts 324°
2026-05-04 12:18 49.10434 10.97174 20630 ft 412 kts 324°
2026-05-04 12:18 49.12856 10.94832 20989 ft 413 kts 324°
2026-05-04 12:18 49.15275 10.92491 21325 ft 415 kts 324°
2026-05-04 12:19 49.17720 10.90122 21671 ft 417 kts 324°
2026-05-04 12:19 49.20173 10.87741 22003 ft 418 kts 324°
2026-05-04 12:19 49.22635 10.85349 22328 ft 420 kts 324°
2026-05-04 12:19 49.25111 10.82941 22691 ft 421 kts 324°
2026-05-04 12:20 49.27582 10.80537 23057 ft 422 kts 324°
2026-05-04 12:20 49.30060 10.78121 23349 ft 424 kts 324°
2026-05-04 12:20 49.32552 10.75688 23639 ft 426 kts 324°
2026-05-04 12:20 49.35055 10.73242 23901 ft 427 kts 324°
2026-05-04 12:21 49.37570 10.70780 24147 ft 430 kts 324°
2026-05-04 12:21 49.40091 10.68310 24385 ft 431 kts 324°
2026-05-04 12:21 49.42628 10.65821 24665 ft 433 kts 324°
2026-05-04 12:21 49.45167 10.63327 24927 ft 434 kts 324°
2026-05-04 12:22 49.47717 10.60819 25167 ft 436 kts 324°
2026-05-04 12:22 49.50276 10.58300 25460 ft 437 kts 324°
2026-05-04 12:22 49.52805 10.55808 25742 ft 438 kts 324°
2026-05-04 12:22 49.55371 10.53275 26007 ft 440 kts 323°
2026-05-04 12:23 49.57955 10.50721 26269 ft 442 kts 323°
2026-05-04 12:23 49.60543 10.48160 26549 ft 443 kts 323°
2026-05-04 12:23 49.63103 10.45502 26808 ft 443 kts 319°
2026-05-04 12:23 49.65420 10.42388 27079 ft 441 kts 310°
2026-05-04 12:24 49.67439 10.38843 27373 ft 440 kts 304°
2026-05-04 12:24 49.69291 10.35057 27593 ft 442 kts 301°
2026-05-04 12:24 49.71039 10.31149 27896 ft 443 kts 300°
2026-05-04 12:24 49.72747 10.27182 28221 ft 444 kts 299°
2026-05-04 12:25 49.74448 10.23190 28567 ft 445 kts 299°
2026-05-04 12:25 49.76156 10.19200 28928 ft 445 kts 299°
2026-05-04 12:25 49.77878 10.15209 29277 ft 447 kts 299°
2026-05-04 12:25 49.79619 10.11201 29590 ft 450 kts 300°
2026-05-04 12:26 49.81374 10.07177 29887 ft 452 kts 300°
2026-05-04 12:26 49.83137 10.03141 30195 ft 453 kts 300°
2026-05-04 12:26 49.84909 9.99087 30462 ft 456 kts 299°
2026-05-04 12:26 49.86693 9.94997 30677 ft 459 kts 299°
2026-05-04 12:27 49.88480 9.90893 30972 ft 460 kts 299°
2026-05-04 12:27 49.90272 9.86772 31278 ft 461 kts 299°
2026-05-04 12:27 49.92039 9.82699 31565 ft 462 kts 299°
2026-05-04 12:27 49.93847 9.78526 31848 ft 463 kts 299°
2026-05-04 12:28 49.95644 9.74371 32110 ft 464 kts 299°
2026-05-04 12:28 49.97442 9.70207 32376 ft 465 kts 299°
2026-05-04 12:28 49.99244 9.66025 32646 ft 466 kts 299°
2026-05-04 12:28 50.01018 9.61903 32895 ft 467 kts 299°
2026-05-04 12:29 50.02827 9.57692 33140 ft 469 kts 299°
2026-05-04 12:29 50.04627 9.53472 33461 ft 467 kts 297°
2026-05-04 12:29 50.06189 9.49091 33857 ft 459 kts 290°
2026-05-04 12:29 50.07351 9.44506 34192 ft 454 kts 284°
2026-05-04 12:30 50.08297 9.39823 34438 ft 453 kts 282°
2026-05-04 12:30 50.09167 9.35116 34670 ft 453 kts 282°
2026-05-04 12:30 50.09997 9.30388 34881 ft 453 kts 281°
2026-05-04 12:30 50.10812 9.25654 35123 ft 453 kts 281°
2026-05-04 12:31 50.11623 9.20921 35353 ft 453 kts 281°
2026-05-04 12:31 50.12439 9.16176 35582 ft 453 kts 281°
2026-05-04 12:31 50.13258 9.11431 35778 ft 454 kts 281°
2026-05-04 12:31 50.14080 9.06681 35985 ft 454 kts 281°
2026-05-04 12:32 50.14904 9.01925 36208 ft 454 kts 281°
2026-05-04 12:32 50.16549 8.92416 36616 ft 454 kts 281°
2026-05-04 12:32 50.17370 8.87653 36831 ft 455 kts 281°
2026-05-04 12:33 50.18189 8.82886 37015 ft 455 kts 281°
2026-05-04 12:33 50.19004 8.78123 37218 ft 455 kts 281°
2026-05-04 12:33 50.19819 8.73351 37400 ft 455 kts 281°
2026-05-04 12:33 50.20632 8.68581 37569 ft 455 kts 281°
2026-05-04 12:34 50.21430 8.63879 37731 ft 455 kts 281°
2026-05-04 12:34 50.22235 8.59125 37884 ft 455 kts 281°
2026-05-04 12:34 50.23057 8.54255 37993 ft 457 kts 281°
2026-05-04 12:35 50.24667 8.44677 37979 ft 459 kts 281°
2026-05-04 12:35 50.26281 8.35029 37986 ft 459 kts 281°
2026-05-04 12:36 50.27886 8.25379 37985 ft 459 kts 281°
2026-05-04 12:36 50.29488 8.15694 37987 ft 460 kts 281°
2026-05-04 12:37 50.31081 8.05999 37995 ft 460 kts 281°
2026-05-04 12:37 50.32667 7.96302 37996 ft 460 kts 281°
2026-05-04 12:38 50.34242 7.86609 37990 ft 460 kts 281°
2026-05-04 12:38 50.35814 7.76883 37993 ft 462 kts 280°
2026-05-04 12:39 50.37382 7.67120 37994 ft 463 kts 280°
2026-05-04 12:39 50.38945 7.57333 37990 ft 463 kts 280°
2026-05-04 12:40 50.40499 7.47548 37990 ft 463 kts 280°
2026-05-04 12:40 50.42044 7.37760 37996 ft 462 kts 280°
2026-05-04 12:41 50.43578 7.27978 37987 ft 462 kts 280°
2026-05-04 12:41 50.45103 7.18191 37990 ft 462 kts 280°
2026-05-04 12:42 50.46620 7.08398 37997 ft 462 kts 280°
2026-05-04 12:42 50.48131 6.98594 37991 ft 462 kts 280°
2026-05-04 12:43 50.49623 6.88850 37986 ft 462 kts 280°
2026-05-04 12:43 50.51327 6.79104 37978 ft 465 kts 284°
2026-05-04 12:44 50.53401 6.69480 37974 ft 465 kts 285°
2026-05-04 12:44 50.55529 6.59869 37977 ft 465 kts 285°
2026-05-04 12:45 50.57654 6.50260 37983 ft 465 kts 285°
2026-05-04 12:45 50.59765 6.40626 37971 ft 466 kts 285°
2026-05-04 12:46 50.61866 6.30971 37971 ft 466 kts 285°
2026-05-04 12:46 50.63563 6.21168 37973 ft 463 kts 280°
2026-05-04 12:47 50.65078 6.11298 37982 ft 463 kts 279°
2026-05-04 12:47 50.66553 6.01422 37985 ft 464 kts 279°
2026-05-04 12:48 50.68027 5.91509 37988 ft 465 kts 279°
2026-05-04 12:48 50.69502 5.81580 37989 ft 465 kts 279°
2026-05-04 12:49 50.70970 5.71654 37988 ft 465 kts 279°
2026-05-04 12:49 50.72429 5.61727 37991 ft 465 kts 279°
2026-05-04 12:50 50.73884 5.51757 37993 ft 467 kts 279°
2026-05-04 12:50 50.75335 5.41748 38002 ft 468 kts 279°
2026-05-04 12:51 50.76778 5.31735 37993 ft 468 kts 279°
2026-05-04 12:51 50.78213 5.21707 37989 ft 468 kts 279°
2026-05-04 12:52 50.79639 5.11679 37980 ft 469 kts 279°
2026-05-04 12:52 50.81615 5.01777 37984 ft 477 kts 290°
2026-05-04 12:53 50.84471 4.92275 37983 ft 479 kts 292°
2026-05-04 12:53 50.87476 4.82858 37984 ft 479 kts 293°
2026-05-04 12:54 50.90485 4.73426 37985 ft 479 kts 293°
2026-05-04 12:54 50.93466 4.63973 37994 ft 481 kts 293°
2026-05-04 12:55 50.96421 4.54527 37995 ft 482 kts 293°
2026-05-04 12:55 50.99393 4.44981 37994 ft 482 kts 293°
2026-05-04 12:56 51.02356 4.35432 37989 ft 482 kts 293°
2026-05-04 12:56 51.05312 4.25869 37988 ft 482 kts 292°
2026-05-04 12:57 51.08259 4.16296 37986 ft 482 kts 292°
2026-05-04 12:57 51.11198 4.06712 37986 ft 482 kts 292°
2026-05-04 12:58 51.14130 3.97112 37982 ft 482 kts 292°
2026-05-04 12:58 51.17052 3.87508 37977 ft 482 kts 292°
2026-05-04 12:59 51.19967 3.77887 37988 ft 482 kts 292°
2026-05-04 12:59 51.22824 3.68205 37979 ft 482 kts 289°
2026-05-04 13:00 51.24669 3.57999 37987 ft 478 kts 280°
2026-05-04 13:00 51.26089 3.47640 37987 ft 477 kts 279°
2026-05-04 13:01 51.27430 3.37263 37995 ft 477 kts 278°
2026-05-04 13:01 51.28751 3.26863 37999 ft 478 kts 278°
2026-05-04 13:02 51.30070 3.16441 38013 ft 479 kts 278°
2026-05-04 13:02 51.31381 3.06078 38011 ft 479 kts 278°
2026-05-04 13:03 51.32695 2.95641 38016 ft 479 kts 278°
2026-05-04 13:03 51.34000 2.85199 38023 ft 479 kts 278°
2026-05-04 13:04 51.35086 2.76447 38004 ft 479 kts 278°
2026-05-04 13:04 51.36383 2.65985 38052 ft 480 kts 278°
2026-05-04 13:04 51.37028 2.60735 38216 ft 480 kts 278°
2026-05-04 13:05 51.37661 2.55563 38383 ft 480 kts 278°
2026-05-04 13:05 51.38299 2.50327 38536 ft 480 kts 278°
2026-05-04 13:05 51.38935 2.45092 38668 ft 480 kts 278°
2026-05-04 13:05 51.39571 2.39838 38774 ft 480 kts 278°
2026-05-04 13:06 51.40203 2.34594 38853 ft 481 kts 278°
2026-05-04 13:06 51.41464 2.24090 39007 ft 482 kts 278°
2026-05-04 13:07 51.42750 2.13542 39016 ft 482 kts 279°
2026-05-04 13:07 51.44034 2.02996 39015 ft 482 kts 279°
2026-05-04 13:08 51.45301 1.92456 39016 ft 482 kts 278°
2026-05-04 13:08 51.46538 1.81887 39016 ft 484 kts 278°
2026-05-04 13:09 51.47759 1.71265 39017 ft 484 kts 278°
2026-05-04 13:09 51.48972 1.60636 39015 ft 484 kts 278°
2026-05-04 13:10 51.50183 1.50010 39021 ft 484 kts 278°
2026-05-04 13:10 51.51373 1.39426 39023 ft 485 kts 278°
2026-05-04 13:11 51.52563 1.28759 39016 ft 486 kts 278°
2026-05-04 13:11 51.54571 1.18368 39017 ft 490 kts 294°
2026-05-04 13:12 51.58468 1.09377 39019 ft 495 kts 313°
2026-05-04 13:12 51.63794 1.02401 39020 ft 498 kts 322°
2026-05-04 13:13 51.69449 0.95881 39020 ft 498 kts 323°
2026-05-04 13:13 51.74956 0.89114 39021 ft 496 kts 318°
2026-05-04 13:14 51.80139 0.81752 39019 ft 496 kts 317°
2026-05-04 13:14 51.85258 0.74391 39016 ft 495 kts 317°
2026-05-04 13:15 51.90441 0.67065 39018 ft 495 kts 318°
2026-05-04 13:15 51.95649 0.59761 39016 ft 495 kts 318°
2026-05-04 13:16 52.00853 0.52455 39021 ft 495 kts 318°
2026-05-04 13:16 52.06053 0.45125 39038 ft 495 kts 318°
2026-05-04 13:17 52.11251 0.37770 39045 ft 496 kts 318°
2026-05-04 13:17 52.16453 0.30385 39047 ft 496 kts 317°
2026-05-04 13:18 52.21645 0.22991 39046 ft 496 kts 317°
2026-05-04 13:18 52.26836 0.15574 39048 ft 496 kts 317°
2026-05-04 13:19 52.32014 0.08151 39048 ft 495 kts 317°
2026-05-04 13:19 52.36861 0.00222 39045 ft 492 kts 309°
2026-05-04 13:20 52.41183 -0.08462 39046 ft 492 kts 307°
2026-05-04 13:20 52.45378 -0.17217 39046 ft 492 kts 307°
2026-05-04 13:21 52.49593 -0.26064 39049 ft 492 kts 307°
2026-05-04 13:21 52.53816 -0.34923 39049 ft 492 kts 307°
2026-05-04 13:22 52.58030 -0.43779 39046 ft 491 kts 307°
2026-05-04 13:22 52.62235 -0.52646 39048 ft 491 kts 307°
2026-05-04 13:23 52.66428 -0.61517 39050 ft 491 kts 307°
2026-05-04 13:23 52.70616 -0.70409 39051 ft 491 kts 307°
2026-05-04 13:24 52.74799 -0.79323 39061 ft 491 kts 307°
2026-05-04 13:24 52.78970 -0.88243 39066 ft 490 kts 307°
2026-05-04 13:25 52.85205 -1.01635 39070 ft 490 kts 307°
2026-05-04 13:25 52.89354 -1.10588 39073 ft 491 kts 307°
2026-05-04 13:26 52.93501 -1.19564 39074 ft 491 kts 306°
2026-05-04 13:26 52.97645 -1.28568 39073 ft 491 kts 306°
2026-05-04 13:27 53.01779 -1.37581 39074 ft 491 kts 306°
2026-05-04 13:27 53.05905 -1.46609 39072 ft 490 kts 306°
2026-05-04 13:28 53.10017 -1.55641 39070 ft 490 kts 306°
2026-05-04 13:28 53.14132 -1.64711 39069 ft 491 kts 306°
2026-05-04 13:29 53.18243 -1.73802 39070 ft 491 kts 306°
2026-05-04 13:29 53.22340 -1.82917 39068 ft 491 kts 305°
2026-05-04 13:30 53.25768 -1.92738 39071 ft 490 kts 297°
2026-05-04 13:30 53.28849 -2.02886 39073 ft 489 kts 296°
2026-05-04 13:31 53.31860 -2.13101 39075 ft 489 kts 296°
2026-05-04 13:31 53.34853 -2.23327 39074 ft 489 kts 294°
2026-05-04 13:32 53.37207 -2.34004 39075 ft 489 kts 288°
2026-05-04 13:32 53.39302 -2.44843 39074 ft 489 kts 287°
2026-05-04 13:33 53.41343 -2.55715 39070 ft 489 kts 287°
2026-05-04 13:33 53.43363 -2.66524 39065 ft 489 kts 287°
2026-05-04 13:34 53.45396 -2.77403 39056 ft 489 kts 287°
2026-05-04 13:34 53.47422 -2.88284 39056 ft 488 kts 287°
2026-05-04 13:35 53.50443 -3.04619 39064 ft 488 kts 287°
2026-05-04 13:36 53.52442 -3.15525 39066 ft 488 kts 288°
2026-05-04 13:36 53.54431 -3.26439 39066 ft 488 kts 287°
2026-05-04 13:37 53.56409 -3.37352 39065 ft 488 kts 287°
2026-05-04 13:37 53.58380 -3.48281 39067 ft 488 kts 287°
2026-05-04 13:38 53.60340 -3.59221 39071 ft 488 kts 287°
2026-05-04 13:38 53.62283 -3.70168 39069 ft 488 kts 287°
2026-05-04 13:39 53.64170 -3.81155 39072 ft 488 kts 287°
2026-05-04 13:39 53.66032 -3.92160 39072 ft 488 kts 287°
2026-05-04 13:40 53.67889 -4.03176 39074 ft 488 kts 287°
2026-05-04 13:40 53.69737 -4.14166 39075 ft 486 kts 286°
2026-05-04 13:41 53.71573 -4.25150 39075 ft 486 kts 287°
2026-05-04 13:41 53.73402 -4.36152 39075 ft 486 kts 287°
2026-05-04 13:42 53.76124 -4.52663 39070 ft 486 kts 287°
2026-05-04 13:42 53.77927 -4.63679 39071 ft 486 kts 286°
2026-05-04 13:43 53.79721 -4.74709 39066 ft 486 kts 287°
2026-05-04 13:43 53.81017 -4.85937 39086 ft 488 kts 276°
2026-05-04 13:44 53.81512 -4.97411 39080 ft 489 kts 275°
2026-05-04 13:44 53.81846 -5.08823 39086 ft 489 kts 274°
2026-05-04 13:45 53.82159 -5.20322 39086 ft 489 kts 274°
2026-05-04 13:45 53.82481 -5.31893 39085 ft 489 kts 274°
2026-05-04 13:46 53.82747 -5.41436 39089 ft 488 kts 274°
2026-05-04 13:46 53.83506 -5.54688 39089 ft 487 kts 280°
2026-05-04 13:47 53.84634 -5.66010 39088 ft 487 kts 281°
2026-05-04 13:47 53.85627 -5.75472 39088 ft 487 kts 281°
2026-05-04 13:48 53.86804 -5.86743 39088 ft 484 kts 281°
2026-05-04 13:48 53.87955 -5.97962 39085 ft 483 kts 281°
2026-05-04 13:49 53.89090 -6.09186 39078 ft 483 kts 281°
2026-05-04 13:49 53.90238 -6.20408 39080 ft 483 kts 281°
2026-05-04 13:50 53.91405 -6.31626 39082 ft 483 kts 281°
2026-05-04 13:50 53.92553 -6.42768 39081 ft 482 kts 281°
2026-05-04 13:51 53.93694 -6.53991 39071 ft 482 kts 281°
2026-05-04 13:51 53.94822 -6.65211 39074 ft 482 kts 281°
2026-05-04 13:52 53.96494 -6.82057 39077 ft 482 kts 281°
2026-05-04 13:53 53.97596 -6.93299 39080 ft 482 kts 281°
2026-05-04 13:53 53.98686 -7.04535 39078 ft 482 kts 281°
2026-05-04 13:54 54.00571 -7.21287 39081 ft 481 kts 287°
2026-05-04 13:55 54.03309 -7.37667 39077 ft 480 kts 287°
2026-05-04 13:55 54.06119 -7.53997 39081 ft 479 kts 287°
2026-05-04 13:56 54.07968 -7.64889 39079 ft 479 kts 287°
2026-05-04 13:57 54.10711 -7.81230 39082 ft 479 kts 287°
2026-05-04 13:58 54.14339 -8.03097 39079 ft 479 kts 287°
2026-05-04 13:58 54.17024 -8.19456 39089 ft 479 kts 287°
2026-05-04 13:59 54.18811 -8.30422 39092 ft 480 kts 287°
2026-05-04 14:00 54.21472 -8.46899 39126 ft 479 kts 287°
2026-05-04 14:00 54.24099 -8.63324 39130 ft 477 kts 286°
2026-05-04 14:01 54.25838 -8.74274 39131 ft 477 kts 286°
2026-05-04 14:02 54.28425 -8.90716 39121 ft 477 kts 286°
2026-05-04 14:02 54.30139 -9.01695 39114 ft 477 kts 286°
2026-05-04 14:03 54.31842 -9.12681 39108 ft 477 kts 286°
2026-05-04 14:03 54.33534 -9.23667 39107 ft 476 kts 286°
2026-05-04 14:04 54.36048 -9.40132 39108 ft 476 kts 286°
2026-05-04 14:04 54.37713 -9.51127 39116 ft 476 kts 285°
2026-05-04 14:05 54.40185 -9.67585 39116 ft 473 kts 285°
2026-05-04 14:06 54.41811 -9.78516 39121 ft 472 kts 285°
2026-05-04 14:06 54.43428 -9.89451 39127 ft 472 kts 285°
2026-05-04 14:07 54.45035 -10.00398 39127 ft 472 kts 285°
2026-05-04 14:07 54.46631 -10.11346 39127 ft 472 kts 284°
2026-05-04 14:08 54.48129 -10.22263 39121 ft 472 kts 283°
2026-05-04 14:08 54.49523 -10.33296 39130 ft 472 kts 283°
2026-05-04 14:09 54.51611 -10.49848 39120 ft 472 kts 283°
2026-05-04 14:10 54.53708 -10.66405 39121 ft 472 kts 283°
2026-05-04 14:10 54.55093 -10.77424 39126 ft 469 kts 282°
2026-05-04 14:11 54.56463 -10.88417 39128 ft 469 kts 282°
2026-05-04 14:11 54.58495 -11.04909 39119 ft 469 kts 282°
2026-05-04 14:12 54.59837 -11.15907 39132 ft 469 kts 282°
2026-05-04 14:13 54.61833 -11.32433 39132 ft 469 kts 282°
2026-05-04 14:13 54.63152 -11.43460 39119 ft 469 kts 282°
2026-05-04 14:14 54.64459 -11.54481 39124 ft 469 kts 282°
2026-05-04 14:14 54.66402 -11.71034 39138 ft 469 kts 281°
2026-05-04 14:15 54.68956 -11.93116 39129 ft 468 kts 281°
2026-05-04 14:16 54.70831 -12.09577 39126 ft 466 kts 281°
2026-05-04 14:17 54.72680 -12.26018 39127 ft 467 kts 281°
2026-05-04 14:18 54.74516 -12.42558 39128 ft 467 kts 281°
2026-05-04 14:19 54.76927 -12.64619 39140 ft 466 kts 280°
2026-05-04 14:19 54.78118 -12.75654 39133 ft 466 kts 280°
2026-05-04 14:20 54.79297 -12.86688 39137 ft 466 kts 280°
2026-05-04 14:20 54.80467 -12.97735 39141 ft 466 kts 280°
2026-05-04 14:21 54.82202 -13.14308 39133 ft 465 kts 280°
2026-05-04 14:21 54.83342 -13.25326 39140 ft 464 kts 280°
2026-05-04 14:22 54.84471 -13.36337 39142 ft 464 kts 279°
2026-05-04 14:22 54.85590 -13.47357 39136 ft 464 kts 279°
2026-05-04 14:23 54.87250 -13.63895 39149 ft 464 kts 279°
2026-05-04 14:24 54.88344 -13.74925 39143 ft 464 kts 279°
2026-05-04 14:24 54.89428 -13.85966 39143 ft 464 kts 279°
2026-05-04 14:25 54.90503 -13.97018 39151 ft 464 kts 279°
2026-05-04 14:25 54.92097 -14.13612 39152 ft 464 kts 279°
2026-05-04 14:26 54.93139 -14.24600 39155 ft 464 kts 279°
2026-05-04 14:26 54.94178 -14.35672 39152 ft 464 kts 279°
2026-05-04 14:27 54.95209 -14.46757 39153 ft 464 kts 279°
2026-05-04 14:27 54.96229 -14.57843 39155 ft 464 kts 279°
2026-05-04 14:28 54.97238 -14.68935 39162 ft 464 kts 279°
2026-05-04 14:28 54.98239 -14.80043 39158 ft 464 kts 279°
2026-05-04 14:29 55.00599 -15.02122 39165 ft 465 kts 288°
2026-05-04 14:30 55.02821 -15.12706 39159 ft 465 kts 290°
2026-05-04 14:31 55.06371 -15.28450 39170 ft 465 kts 291°
2026-05-04 14:32 55.11069 -15.49511 39161 ft 465 kts 290°
2026-05-04 14:32 55.13392 -15.60070 39168 ft 466 kts 290°
2026-05-04 14:33 55.15706 -15.70647 39167 ft 466 kts 290°
2026-05-04 14:33 55.18012 -15.81235 39167 ft 466 kts 290°
2026-05-04 14:34 55.19924 -15.90054 39169 ft 466 kts 290°
2026-05-04 14:34 55.22214 -16.00668 39172 ft 466 kts 290°
2026-05-04 14:35 55.24495 -16.11292 39192 ft 466 kts 290°
2026-05-04 14:35 55.26765 -16.21927 39169 ft 465 kts 290°
2026-05-04 14:36 55.29023 -16.32556 39180 ft 465 kts 290°
2026-05-04 14:36 55.31275 -16.43211 39182 ft 465 kts 290°
2026-05-04 14:37 55.33515 -16.53868 39183 ft 465 kts 290°
2026-05-04 14:37 55.35748 -16.64547 39189 ft 465 kts 290°
2026-05-04 14:38 55.37969 -16.75223 39188 ft 465 kts 290°
2026-05-04 14:38 55.40184 -16.85928 39185 ft 465 kts 290°
2026-05-04 14:39 55.42387 -16.96632 39184 ft 465 kts 289°
2026-05-04 14:39 55.44580 -17.07348 39186 ft 465 kts 289°
2026-05-04 14:40 55.47835 -17.23360 39189 ft 465 kts 289°
2026-05-04 14:40 55.50007 -17.34112 39189 ft 465 kts 289°
2026-05-04 14:41 55.52167 -17.44867 39189 ft 465 kts 289°
2026-05-04 14:42 55.56460 -17.66419 39205 ft 465 kts 289°
2026-05-04 14:42 55.58592 -17.77209 39195 ft 465 kts 289°
2026-05-04 14:43 55.60713 -17.88007 39194 ft 465 kts 289°
2026-05-04 14:43 55.62826 -17.98819 39202 ft 465 kts 289°
2026-05-04 14:44 55.64929 -18.09643 39203 ft 465 kts 289°
2026-05-04 14:44 55.67022 -18.20478 39197 ft 465 kts 289°
2026-05-04 14:45 55.69105 -18.31322 39206 ft 465 kts 288°
2026-05-04 14:45 55.71179 -18.42179 39198 ft 465 kts 288°
2026-05-04 14:46 55.73246 -18.53062 39214 ft 465 kts 288°
2026-05-04 14:46 55.75302 -18.63945 39204 ft 465 kts 288°
2026-05-04 14:47 55.77347 -18.74835 39196 ft 465 kts 288°
2026-05-04 14:47 55.79383 -18.85743 39210 ft 465 kts 288°
2026-05-04 14:48 55.81410 -18.96663 39210 ft 465 kts 288°
2026-05-04 14:48 55.83430 -19.07609 39215 ft 465 kts 288°
2026-05-04 14:49 55.85439 -19.18556 39215 ft 465 kts 288°
2026-05-04 14:49 55.87439 -19.29522 39213 ft 465 kts 288°
2026-05-04 14:50 55.89414 -19.40418 39220 ft 465 kts 288°
2026-05-04 14:50 55.91393 -19.51394 39224 ft 465 kts 288°
2026-05-04 14:51 55.93365 -19.62403 39220 ft 465 kts 287°
2026-05-04 14:51 55.95311 -19.73329 39219 ft 465 kts 287°
2026-05-04 14:52 55.97260 -19.84339 39224 ft 465 kts 287°
2026-05-04 14:52 55.99188 -19.95359 39223 ft 465 kts 285°
2026-05-04 14:53 56.00268 -20.06732 39229 ft 465 kts 276°
2026-05-04 14:53 56.00793 -20.18238 39227 ft 465 kts 274°
2026-05-04 14:54 56.01210 -20.29777 39224 ft 465 kts 274°
2026-05-04 14:54 56.01620 -20.41306 39234 ft 465 kts 274°
2026-05-04 14:55 56.02036 -20.52837 39231 ft 465 kts 274°
2026-05-04 14:55 56.02449 -20.64364 39236 ft 465 kts 274°
2026-05-04 14:56 56.02852 -20.75895 39229 ft 465 kts 274°
2026-05-04 14:56 56.03243 -20.87423 39228 ft 465 kts 274°
2026-05-04 14:57 56.03624 -20.98972 39238 ft 465 kts 274°
2026-05-04 14:57 56.03993 -21.10524 39237 ft 465 kts 274°
2026-05-04 14:58 56.04352 -21.22084 39243 ft 465 kts 273°
2026-05-04 14:58 56.04701 -21.33643 39243 ft 465 kts 273°
2026-05-04 14:59 56.05038 -21.45206 39252 ft 465 kts 273°
2026-05-04 15:00 56.05525 -21.62560 39253 ft 466 kts 273°
2026-05-04 15:00 56.05836 -21.74163 39253 ft 466 kts 273°
2026-05-04 15:01 56.06282 -21.91558 39255 ft 467 kts 273°
2026-05-04 15:01 56.06566 -22.03158 39247 ft 467 kts 272°
2026-05-04 15:02 56.06840 -22.14759 39248 ft 467 kts 272°
2026-05-04 15:02 56.07102 -22.26377 39252 ft 467 kts 272°
2026-05-04 15:03 56.07354 -22.38000 39259 ft 467 kts 272°
2026-05-04 15:03 56.07595 -22.49635 39260 ft 467 kts 272°
2026-05-04 15:04 56.07825 -22.61263 39257 ft 467 kts 272°
2026-05-04 15:04 56.08044 -22.72896 39262 ft 467 kts 272°
2026-05-04 15:05 56.08252 -22.84525 39264 ft 467 kts 272°
2026-05-04 15:05 56.08449 -22.96149 39261 ft 467 kts 272°
2026-05-04 15:06 56.08636 -23.07787 39266 ft 467 kts 272°
2026-05-04 15:07 56.08894 -23.25232 39265 ft 467 kts 271°
2026-05-04 15:07 56.09053 -23.36864 39267 ft 467 kts 271°
2026-05-04 15:08 56.09201 -23.48507 39270 ft 468 kts 271°
2026-05-04 15:08 56.09338 -23.60149 39272 ft 468 kts 271°
2026-05-04 15:09 56.09464 -23.71790 39270 ft 468 kts 271°
2026-05-04 15:09 56.09579 -23.83431 39270 ft 467 kts 271°
2026-05-04 15:10 56.09731 -24.00810 39274 ft 467 kts 271°
2026-05-04 15:11 56.09858 -24.18280 39277 ft 468 kts 271°
2026-05-04 15:11 56.09930 -24.29930 39278 ft 468 kts 271°
2026-05-04 15:12 56.09990 -24.41584 39276 ft 468 kts 271°
2026-05-04 15:12 56.10040 -24.53243 39272 ft 468 kts 270°
2026-05-04 15:13 56.10078 -24.64899 39279 ft 468 kts 270°
2026-05-04 15:13 56.10106 -24.76559 39282 ft 468 kts 270°
2026-05-04 15:14 56.10122 -24.88222 39284 ft 468 kts 270°
2026-05-04 15:14 56.10128 -24.99884 39284 ft 468 kts 270°
2026-05-04 15:15 56.10123 -25.11550 39287 ft 468 kts 270°
2026-05-04 15:15 56.10106 -25.23114 39291 ft 468 kts 270°
2026-05-04 15:16 56.10061 -25.40610 39291 ft 468 kts 270°
2026-05-04 15:17 56.09991 -25.58092 39291 ft 468 kts 270°
2026-05-04 15:17 56.09897 -25.75589 39296 ft 468 kts 270°
2026-05-04 15:18 56.09834 -25.85281 39294 ft 468 kts 270°
2026-05-04 15:19 56.09701 -26.02780 39300 ft 468 kts 269°
2026-05-04 15:19 56.09543 -26.20281 39307 ft 468 kts 269°
2026-05-04 15:20 56.09424 -26.31952 39305 ft 469 kts 269°
2026-05-04 15:20 56.09294 -26.43607 39309 ft 468 kts 269°
2026-05-04 15:21 56.09154 -26.55270 39305 ft 469 kts 269°
2026-05-04 15:22 56.08921 -26.72787 39314 ft 469 kts 269°
2026-05-04 15:22 56.08664 -26.90305 39313 ft 470 kts 269°
2026-05-04 15:23 56.08479 -27.01996 39315 ft 470 kts 269°
2026-05-04 15:23 56.08284 -27.13611 39308 ft 470 kts 269°
2026-05-04 15:24 56.07858 -27.36985 39318 ft 470 kts 268°
2026-05-04 15:25 56.07628 -27.48680 39318 ft 470 kts 268°
2026-05-04 15:26 56.07263 -27.66218 39322 ft 470 kts 268°
2026-05-04 15:26 56.06873 -27.83754 39321 ft 470 kts 268°
2026-05-04 15:27 56.06457 -28.01298 39324 ft 470 kts 268°
2026-05-04 15:28 56.06017 -28.18842 39335 ft 470 kts 268°
2026-05-04 15:29 56.05552 -28.36384 39332 ft 471 kts 268°
2026-05-04 15:30 56.04368 -28.77345 39339 ft 471 kts 268°
2026-05-04 15:31 56.03822 -28.94819 39334 ft 471 kts 267°
2026-05-04 15:32 56.02852 -29.24068 39347 ft 471 kts 267°
2026-05-04 15:34 56.01812 -29.53310 39346 ft 472 kts 267°
2026-05-04 15:34 56.01154 -29.70865 39349 ft 472 kts 267°
2026-05-04 15:35 56.00472 -29.88413 39349 ft 472 kts 267°
2026-05-04 15:36 56.00778 -30.05804 39354 ft 469 kts 285°
2026-05-04 15:36 56.02118 -30.17227 39347 ft 470 kts 279°
2026-05-04 15:37 56.02858 -30.28847 39341 ft 471 kts 275°
2026-05-04 15:37 56.03299 -30.40458 39353 ft 471 kts 274°
2026-05-04 15:38 56.03684 -30.52151 39346 ft 471 kts 274°
2026-05-04 15:38 56.04081 -30.63837 39355 ft 471 kts 274°
2026-05-04 15:39 56.04485 -30.75529 39347 ft 471 kts 274°
2026-05-04 15:40 56.05078 -30.93064 39350 ft 471 kts 274°
2026-05-04 15:40 56.05459 -31.04754 39355 ft 471 kts 274°
2026-05-04 15:41 56.05828 -31.16448 39342 ft 470 kts 274°
2026-05-04 15:41 56.06185 -31.28123 39341 ft 470 kts 274°
2026-05-04 15:42 56.06532 -31.39813 39351 ft 470 kts 274°
2026-05-04 15:42 56.06868 -31.51510 39353 ft 470 kts 274°
2026-05-04 15:43 56.07192 -31.63198 39348 ft 470 kts 274°
2026-05-04 15:43 56.07504 -31.74875 39351 ft 470 kts 274°
2026-05-04 15:44 56.07806 -31.86553 39354 ft 469 kts 274°
2026-05-04 15:44 56.08097 -31.98223 39349 ft 469 kts 274°
2026-05-04 15:45 56.08377 -32.09899 39348 ft 469 kts 274°
2026-05-04 15:45 56.08645 -32.21567 39355 ft 469 kts 273°
2026-05-04 15:46 56.08903 -32.33245 39353 ft 469 kts 273°
2026-05-04 15:46 56.09149 -32.44926 39354 ft 469 kts 273°
2026-05-04 15:47 56.09384 -32.56597 39360 ft 469 kts 273°
2026-05-04 15:47 56.09609 -32.68250 39358 ft 468 kts 273°
2026-05-04 15:48 56.09822 -32.79915 39350 ft 468 kts 273°
2026-05-04 15:48 56.10121 -32.97394 39351 ft 468 kts 273°
2026-05-04 15:49 56.10305 -33.08976 39342 ft 468 kts 273°
2026-05-04 15:49 56.10480 -33.20634 39348 ft 468 kts 273°
2026-05-04 15:50 56.10645 -33.32372 39348 ft 468 kts 273°
2026-05-04 15:50 56.10797 -33.43967 39348 ft 469 kts 273°
2026-05-04 15:51 56.10938 -33.55635 39347 ft 468 kts 273°
2026-05-04 15:51 56.11069 -33.67297 39346 ft 468 kts 273°
2026-05-04 15:52 56.11188 -33.78936 39335 ft 467 kts 273°
2026-05-04 15:52 56.11297 -33.90594 39345 ft 468 kts 273°
2026-05-04 15:53 56.11395 -34.02276 39345 ft 469 kts 272°
2026-05-04 15:53 56.11482 -34.13955 39345 ft 469 kts 272°
2026-05-04 15:54 56.11558 -34.25630 39346 ft 469 kts 272°
2026-05-04 15:54 56.11623 -34.37312 39341 ft 469 kts 272°
2026-05-04 15:55 56.11677 -34.49008 39337 ft 469 kts 272°
2026-05-04 15:55 56.11720 -34.60709 39344 ft 470 kts 272°
2026-05-04 15:56 56.11752 -34.72401 39336 ft 470 kts 272°
2026-05-04 15:56 56.11772 -34.84103 39338 ft 470 kts 272°
2026-05-04 15:57 56.11782 -34.95812 39337 ft 470 kts 272°
2026-05-04 15:57 56.11780 -35.07515 39336 ft 470 kts 272°
2026-05-04 15:58 56.11768 -35.19213 39329 ft 470 kts 271°
2026-05-04 15:58 56.11745 -35.30841 39333 ft 470 kts 271°
2026-05-04 15:59 56.11710 -35.42541 39333 ft 470 kts 271°
2026-05-04 15:59 56.11665 -35.54325 39328 ft 470 kts 271°
2026-05-04 16:00 56.11608 -35.65937 39330 ft 469 kts 271°
2026-05-04 16:00 56.11540 -35.77683 39330 ft 468 kts 271°
2026-05-04 16:01 56.11462 -35.89272 39321 ft 468 kts 271°
2026-05-04 16:01 56.11373 -36.00914 39319 ft 467 kts 271°
2026-05-04 16:02 56.11273 -36.12532 39320 ft 466 kts 271°
2026-05-04 16:03 56.11103 -36.29952 39319 ft 466 kts 270°
2026-05-04 16:03 56.10975 -36.41577 39317 ft 466 kts 270°
2026-05-04 16:04 56.10837 -36.53192 39316 ft 466 kts 270°
2026-05-04 16:04 56.10610 -36.70570 39304 ft 464 kts 270°
2026-05-04 16:05 56.10445 -36.82107 39308 ft 463 kts 270°
2026-05-04 16:06 56.10210 -36.97468 39311 ft 463 kts 270°
2026-05-04 16:07 56.09821 -37.20541 39310 ft 463 kts 270°
2026-05-04 16:08 56.09388 -37.43616 39308 ft 464 kts 270°
2026-05-04 16:09 56.08788 -37.72426 39298 ft 463 kts 269°
2026-05-04 16:10 56.08259 -37.95459 39278 ft 463 kts 270°
2026-05-04 16:11 56.07691 -38.18332 39292 ft 459 kts 269°
2026-05-04 16:12 56.06764 -38.52544 39288 ft 458 kts 269°
2026-05-04 16:13 56.06095 -38.75200 39280 ft 456 kts 269°
2026-05-04 16:14 56.05389 -38.97812 39273 ft 455 kts 269°